Weather History for Keahole Point, HI

Change the Weather History Date:

Sunday, May 26, 2013

  Actual Average Record
Temperature  
Mean Temperature 78 °F -  
Max Temperature 84 °F 81 °F 90 °F (1986)
Min Temperature 73 °F 71 °F 68 °F (1983)
Cooling Degree Days 14    
Growing Degree Days 28 (Base 50)    
Moisture  
Dew Point 67 °F    
Average Humidity 69    
Maximum Humidity 85    
Minimum Humidity 52    
Precipitation  
Precipitation 0.00 in - - ()
Sea Level Pressure  
Sea Level Pressure 30.02 in    
Wind  
Wind Speed 7 mph (SE)    
Max Wind Speed 17 mph    
Max Gust Speed -    
Visibility 10 miles    
Events Rain    
Averages and records for this station are not official NWS values.
T = Trace of Precipitation, MM = Missing Value Source: NWS Daily Summary

Daily Weather History Graph

Daily Weather History Graph

Search for Another Location

Airport:

Trip Planner

Search our weather history database for the weather conditions in past years. The results will help you decide how hot, cold, wet, or windy it might be!

Date:

Astronomy

May. 26, 2013 Rise Set
Actual Time 5:45 AM HST 6:57 PM HST
Civil Twilight 5:21 AM HST 7:21 PM HST
Nautical Twilight 4:52 AM HST 7:49 PM HST
Astronomical Twilight 4:23 AM HST 8:19 PM HST
Moon 8:59 PM HST (5/26) 7:24 AM HST (5/26)
Length of Visible Light 14h 00m
Length of Day
13h 12m
Waning Gibbous, 95% of the Moon is Illuminated
May 26
Waning Gibbous
May 31
Last Quarter
Jun 8
New
Jun 16
First Quarter
Jun 23
Full

Hourly Weather History & Observations

Time (HST) Temp. Heat Index Dew Point Humidity Pressure Visibility Wind Dir Wind Speed Gust Speed Precip Events Conditions
12:53 AM 75.0 °F - 66.9 °F 76% 30.02 in 10.0 mi East 5.8 mph - N/A   Overcast
1:53 AM 73.9 °F - 69.1 °F 85% 30.00 in 10.0 mi ESE 6.9 mph - N/A   Overcast
2:53 AM 73.9 °F - 68.0 °F 82% 29.99 in 10.0 mi NE 3.5 mph - N/A   Mostly Cloudy
3:53 AM 75.0 °F - 66.9 °F 76% 29.99 in 10.0 mi ENE 4.6 mph - N/A   Overcast
4:53 AM 73.0 °F - 66.9 °F 81% 30.00 in 10.0 mi NE 3.5 mph - N/A   Overcast
5:53 AM 75.0 °F - 68.0 °F 79% 30.01 in 10.0 mi SE 4.6 mph - 0.00 in   Overcast
6:53 AM 73.9 °F - 69.1 °F 85% 30.03 in 10.0 mi ESE 5.8 mph - 0.00 in   Overcast
7:53 AM 75.9 °F - 71.1 °F 85% 30.04 in 10.0 mi Calm Calm - N/A   Overcast
8:53 AM 78.1 °F - 68.0 °F 71% 30.04 in 10.0 mi WSW 4.6 mph - N/A   Mostly Cloudy
9:53 AM 80.1 °F 82.9 °F 69.1 °F 69% 30.04 in 10.0 mi South 6.9 mph - N/A   Overcast
10:53 AM 81.0 °F 84.1 °F 69.1 °F 67% 30.04 in 10.0 mi SW 9.2 mph - N/A   Mostly Cloudy
11:53 AM 82.9 °F 87.0 °F 70.0 °F 65% 30.02 in 10.0 mi SSW 11.5 mph - N/A   Partly Cloudy
12:53 PM 82.0 °F 84.9 °F 68.0 °F 62% 30.00 in 10.0 mi South 11.5 mph - N/A   Mostly Cloudy
1:53 PM 82.9 °F 87.0 °F 70.0 °F 65% 29.99 in 10.0 mi South 12.7 mph - N/A   Overcast
2:53 PM 84.0 °F 88.4 °F 70.0 °F 63% 29.98 in 10.0 mi SSW 11.5 mph - N/A   Overcast
3:53 PM 81.0 °F 84.4 °F 70.0 °F 69% 29.98 in 10.0 mi SSW 12.7 mph - 0.00 in Rain Light Rain
4:53 PM 80.1 °F 82.9 °F 69.1 °F 69% 29.98 in 10.0 mi SE 10.4 mph - 0.00 in   Overcast
5:53 PM 80.1 °F 82.9 °F 69.1 °F 69% 29.99 in 10.0 mi SSW 8.1 mph - N/A   Scattered Clouds
6:53 PM 79.0 °F - 68.0 °F 69% 30.01 in 10.0 mi ESE 5.8 mph - N/A   Clear
7:53 PM 79.0 °F - 61.0 °F 54% 30.02 in 10.0 mi ENE 9.2 mph - N/A   Clear
8:53 PM 77.0 °F - 57.9 °F 52% 30.04 in 10.0 mi NNE 17.3 mph - N/A   Clear
9:53 PM 75.9 °F - 59.0 °F 56% 30.06 in 10.0 mi NNE 10.4 mph - N/A   Clear
10:53 PM 75.9 °F - 59.0 °F 56% 30.06 in 10.0 mi NE 12.7 mph - N/A   Partly Cloudy
11:53 PM 75.9 °F - 60.1 °F 58% 30.05 in 10.0 mi ENE 12.7 mph - N/A   Scattered Clouds